Year,Month,Day,Hour,Minute,Value (Times are PST for temperature in C)
2013,04,04,00,00,7.70
2013,04,04,00,01,7.70
2013,04,04,00,02,7.70
2013,04,04,00,03,7.70
2013,04,04,00,04,7.70
2013,04,04,00,05,7.70
2013,04,04,00,06,7.70
2013,04,04,00,07,7.70
2013,04,04,00,08,7.70
2013,04,04,00,09,7.70
2013,04,04,00,10,7.70
2013,04,04,00,11,7.70
2013,04,04,00,12,7.70
2013,04,04,00,13,7.70
2013,04,04,00,14,7.70
2013,04,04,00,15,7.70
2013,04,04,00,16,7.70
2013,04,04,00,17,7.70
2013,04,04,00,18,7.70
2013,04,04,00,19,7.70
2013,04,04,00,20,7.70
2013,04,04,00,21,7.70
2013,04,04,00,22,7.70
2013,04,04,00,23,7.70
2013,04,04,00,24,7.60
2013,04,04,00,25,7.60
2013,04,04,00,26,7.60
2013,04,04,00,27,7.60
2013,04,04,00,28,7.60
2013,04,04,00,29,7.60
2013,04,04,00,30,7.60
2013,04,04,00,31,7.60
2013,04,04,00,32,7.60
2013,04,04,00,33,7.60
2013,04,04,00,34,7.60
2013,04,04,00,35,7.60
2013,04,04,00,36,7.70
2013,04,04,00,37,7.70
2013,04,04,00,38,7.70
2013,04,04,00,39,7.70
2013,04,04,00,40,7.70
2013,04,04,00,41,7.70
2013,04,04,00,42,7.70
2013,04,04,00,43,7.70
2013,04,04,00,44,7.70
2013,04,04,00,45,7.70
2013,04,04,00,46,7.70
2013,04,04,00,47,7.80
2013,04,04,00,48,7.80
2013,04,04,00,49,7.80
2013,04,04,00,50,7.80
2013,04,04,00,51,7.80
2013,04,04,00,52,7.80
2013,04,04,00,53,7.80
2013,04,04,00,54,7.80
2013,04,04,00,55,7.80
2013,04,04,00,56,7.80
2013,04,04,00,57,7.80
2013,04,04,00,58,7.80
2013,04,04,00,59,7.80
2013,04,04,01,00,7.80
2013,04,04,01,01,7.80
2013,04,04,01,02,7.80
2013,04,04,01,03,7.80
2013,04,04,01,04,7.80
2013,04,04,01,05,7.80
2013,04,04,01,06,7.80
2013,04,04,01,07,7.80
2013,04,04,01,08,7.80
2013,04,04,01,09,7.80
2013,04,04,01,10,7.80
2013,04,04,01,11,7.80
2013,04,04,01,12,7.80
2013,04,04,01,13,7.80
2013,04,04,01,14,7.80
2013,04,04,01,15,7.80
2013,04,04,01,16,7.80
2013,04,04,01,17,7.80
2013,04,04,01,18,7.80
2013,04,04,01,19,7.90
2013,04,04,01,20,7.90
2013,04,04,01,21,7.90
2013,04,04,01,22,7.90
2013,04,04,01,23,7.90
2013,04,04,01,24,7.90
2013,04,04,01,25,7.90
2013,04,04,01,26,7.90
2013,04,04,01,27,7.80
2013,04,04,01,28,7.80
2013,04,04,01,29,7.80
2013,04,04,01,30,7.80
2013,04,04,01,31,7.80
2013,04,04,01,32,7.80
2013,04,04,01,33,7.80
2013,04,04,01,34,7.80
2013,04,04,01,35,7.80
2013,04,04,01,36,7.80
2013,04,04,01,37,7.80
2013,04,04,01,38,7.80
2013,04,04,01,39,7.80
2013,04,04,01,40,7.80
2013,04,04,01,41,7.80
2013,04,04,01,42,7.80
2013,04,04,01,43,7.80
2013,04,04,01,44,7.80
2013,04,04,01,45,7.90
2013,04,04,01,46,7.80
2013,04,04,01,47,7.90
2013,04,04,01,48,7.80
2013,04,04,01,49,7.80
2013,04,04,01,50,7.90
2013,04,04,01,51,7.90
2013,04,04,01,52,7.90
2013,04,04,01,53,7.90
2013,04,04,01,54,7.90
2013,04,04,01,55,7.90
2013,04,04,01,56,7.90
2013,04,04,01,57,7.90
2013,04,04,01,58,7.90
2013,04,04,01,59,7.90
2013,04,04,02,00,7.90
2013,04,04,02,01,7.90
2013,04,04,02,02,8.00
2013,04,04,02,03,8.00
2013,04,04,02,04,8.00
2013,04,04,02,05,8.00
2013,04,04,02,06,8.00
2013,04,04,02,07,8.00
2013,04,04,02,08,8.00
2013,04,04,02,09,8.00
2013,04,04,02,10,8.00
2013,04,04,02,11,8.00
2013,04,04,02,12,8.00
2013,04,04,02,13,8.00
2013,04,04,02,14,8.10
2013,04,04,02,15,8.00
2013,04,04,02,16,8.10
2013,04,04,02,17,8.10
2013,04,04,02,18,8.10
2013,04,04,02,19,8.10
2013,04,04,02,20,8.10
2013,04,04,02,21,8.10
2013,04,04,02,22,8.10
2013,04,04,02,23,8.10
2013,04,04,02,24,8.10
2013,04,04,02,25,8.10
2013,04,04,02,26,8.10
2013,04,04,02,27,8.10
2013,04,04,02,28,8.10
2013,04,04,02,29,8.10
2013,04,04,02,30,8.10
2013,04,04,02,31,8.10
2013,04,04,02,32,8.10
2013,04,04,02,33,8.10
2013,04,04,02,34,8.10
2013,04,04,02,35,8.10
2013,04,04,02,36,8.10
2013,04,04,02,37,8.10
2013,04,04,02,38,8.10
2013,04,04,02,39,8.10
2013,04,04,02,40,8.10
2013,04,04,02,41,8.10
2013,04,04,02,42,8.20
2013,04,04,02,43,8.20
2013,04,04,02,44,8.20
2013,04,04,02,45,8.20
2013,04,04,02,46,8.10
2013,04,04,02,47,8.10
2013,04,04,02,48,8.10
2013,04,04,02,49,8.10
2013,04,04,02,50,8.10
2013,04,04,02,51,8.10
2013,04,04,02,52,8.10
2013,04,04,02,53,8.10
2013,04,04,02,54,8.10
2013,04,04,02,55,8.10
2013,04,04,02,56,8.10
2013,04,04,02,57,8.10
2013,04,04,02,58,8.10
2013,04,04,02,59,8.10
2013,04,04,03,00,8.10
2013,04,04,03,01,8.10
2013,04,04,03,02,8.10
2013,04,04,03,03,8.10
2013,04,04,03,04,8.10
2013,04,04,03,05,8.10
2013,04,04,03,06,8.10
2013,04,04,03,07,8.10
2013,04,04,03,08,8.10
2013,04,04,03,09,8.10
2013,04,04,03,10,8.10
2013,04,04,03,11,8.10
2013,04,04,03,12,8.10
2013,04,04,03,13,8.10
2013,04,04,03,14,8.10
2013,04,04,03,15,8.10
2013,04,04,03,16,8.10
2013,04,04,03,17,8.10
2013,04,04,03,18,8.10
2013,04,04,03,19,8.10
2013,04,04,03,20,8.10
2013,04,04,03,21,8.00
2013,04,04,03,22,8.00
2013,04,04,03,23,8.00
2013,04,04,03,24,8.00
2013,04,04,03,25,8.00
2013,04,04,03,26,8.00
2013,04,04,03,27,8.00
2013,04,04,03,28,8.00
2013,04,04,03,29,8.00
2013,04,04,03,30,8.00
2013,04,04,03,31,8.00
2013,04,04,03,32,8.00
2013,04,04,03,33,8.00
2013,04,04,03,34,8.00
2013,04,04,03,35,8.00
2013,04,04,03,36,8.00
2013,04,04,03,37,8.00
2013,04,04,03,38,8.00
2013,04,04,03,39,8.00
2013,04,04,03,40,8.00
2013,04,04,03,41,8.00
2013,04,04,03,42,8.00
2013,04,04,03,43,8.00
2013,04,04,03,44,8.10
2013,04,04,03,45,8.10
2013,04,04,03,46,8.10
2013,04,04,03,47,8.10
2013,04,04,03,48,8.10
2013,04,04,03,49,8.20
2013,04,04,03,50,8.20
2013,04,04,03,51,8.20
2013,04,04,03,52,8.20
2013,04,04,03,53,8.20
2013,04,04,03,54,8.20
2013,04,04,03,55,8.20
2013,04,04,03,56,8.20
2013,04,04,03,57,8.20
2013,04,04,03,58,8.20
2013,04,04,03,59,8.20
2013,04,04,04,00,8.20
2013,04,04,04,01,8.20
2013,04,04,04,02,8.20
2013,04,04,04,03,8.10
2013,04,04,04,04,8.10
2013,04,04,04,05,8.10
2013,04,04,04,06,8.10
2013,04,04,04,07,8.10
2013,04,04,04,08,8.10
2013,04,04,04,09,8.10
2013,04,04,04,10,8.10
2013,04,04,04,11,8.10
2013,04,04,04,12,8.10
2013,04,04,04,13,8.10
2013,04,04,04,14,8.10
2013,04,04,04,15,8.10
2013,04,04,04,16,8.10
2013,04,04,04,17,8.10
2013,04,04,04,18,8.10
2013,04,04,04,19,8.00
2013,04,04,04,20,8.00
2013,04,04,04,21,8.00
2013,04,04,04,22,8.00
2013,04,04,04,23,8.00
2013,04,04,04,24,8.00
2013,04,04,04,25,8.00
2013,04,04,04,26,8.00
2013,04,04,04,27,8.00
2013,04,04,04,28,8.00
2013,04,04,04,29,8.00
2013,04,04,04,30,8.00
2013,04,04,04,31,8.00
2013,04,04,04,32,8.00
2013,04,04,04,33,8.00
2013,04,04,04,34,8.10
2013,04,04,04,35,8.10
2013,04,04,04,36,8.10
2013,04,04,04,37,8.10
2013,04,04,04,38,8.10
2013,04,04,04,39,8.10
2013,04,04,04,40,8.10
2013,04,04,04,41,8.10
2013,04,04,04,42,8.20
2013,04,04,04,43,8.20
2013,04,04,04,44,8.20
2013,04,04,04,45,8.20
2013,04,04,04,46,8.20
2013,04,04,04,47,8.20
2013,04,04,04,48,8.10
2013,04,04,04,49,8.10
2013,04,04,04,50,8.10
2013,04,04,04,51,8.10
2013,04,04,04,52,8.10
2013,04,04,04,53,8.10
2013,04,04,04,54,8.10
2013,04,04,04,55,8.10
2013,04,04,04,56,8.10
2013,04,04,04,57,8.10
2013,04,04,04,58,8.10
2013,04,04,04,59,8.00
2013,04,04,05,00,8.00
2013,04,04,05,01,8.00
2013,04,04,05,02,8.00
2013,04,04,05,03,7.90
2013,04,04,05,04,7.90
2013,04,04,05,05,7.90
2013,04,04,05,06,7.90
2013,04,04,05,07,7.90
2013,04,04,05,08,7.90
2013,04,04,05,09,7.90
2013,04,04,05,10,7.90
2013,04,04,05,11,7.90
2013,04,04,05,12,7.90
2013,04,04,05,13,7.90
2013,04,04,05,14,7.90
2013,04,04,05,15,7.90
2013,04,04,05,16,7.90
2013,04,04,05,17,7.90
2013,04,04,05,18,7.90
2013,04,04,05,19,7.90
2013,04,04,05,20,7.90
2013,04,04,05,21,7.90
2013,04,04,05,22,7.90
2013,04,04,05,23,7.90
2013,04,04,05,24,7.90
2013,04,04,05,25,7.90
2013,04,04,05,26,7.90
2013,04,04,05,27,7.90
2013,04,04,05,28,7.90
2013,04,04,05,29,7.80
2013,04,04,05,30,7.90
2013,04,04,05,31,7.90
2013,04,04,05,32,7.90
2013,04,04,05,33,7.90
2013,04,04,05,34,7.90
2013,04,04,05,35,7.90
2013,04,04,05,36,7.90
2013,04,04,05,37,7.90
2013,04,04,05,38,7.90
2013,04,04,05,39,7.90
2013,04,04,05,40,7.90
2013,04,04,05,41,7.90
2013,04,04,05,42,7.90
2013,04,04,05,43,7.90
2013,04,04,05,44,7.90
2013,04,04,05,45,7.90
2013,04,04,05,46,7.90
2013,04,04,05,47,7.90
2013,04,04,05,48,7.90
2013,04,04,05,49,7.90
2013,04,04,05,50,7.90
2013,04,04,05,51,7.90
2013,04,04,05,52,7.90
2013,04,04,05,53,7.90
2013,04,04,05,54,7.90
2013,04,04,05,55,7.90
2013,04,04,05,56,7.90
2013,04,04,05,57,7.90
2013,04,04,05,58,7.90
2013,04,04,05,59,7.90
2013,04,04,06,00,7.90
2013,04,04,06,01,7.90
2013,04,04,06,02,7.90
2013,04,04,06,03,7.90
2013,04,04,06,04,7.90
2013,04,04,06,05,7.90
2013,04,04,06,06,7.90
2013,04,04,06,07,7.90
2013,04,04,06,08,7.90
2013,04,04,06,09,7.80
2013,04,04,06,10,7.80
2013,04,04,06,11,7.80
2013,04,04,06,12,7.80
2013,04,04,06,13,7.80
2013,04,04,06,14,7.80
2013,04,04,06,15,7.80
2013,04,04,06,16,7.80
2013,04,04,06,17,7.80
2013,04,04,06,18,7.80
2013,04,04,06,19,7.80
2013,04,04,06,20,7.80
2013,04,04,06,21,7.80
2013,04,04,06,22,7.80
2013,04,04,06,23,7.80
2013,04,04,06,24,7.80
2013,04,04,06,25,7.80
2013,04,04,06,26,7.80
2013,04,04,06,27,7.80
2013,04,04,06,28,7.80
2013,04,04,06,29,7.80
2013,04,04,06,30,7.80
2013,04,04,06,31,7.80
2013,04,04,06,32,7.80
2013,04,04,06,33,7.80
2013,04,04,06,34,7.80
2013,04,04,06,35,7.80
2013,04,04,06,36,7.80
2013,04,04,06,37,7.80
2013,04,04,06,38,7.80
2013,04,04,06,39,7.80
2013,04,04,06,40,7.80
2013,04,04,06,41,7.80
2013,04,04,06,42,7.80
2013,04,04,06,43,7.80
2013,04,04,06,44,7.80
2013,04,04,06,45,7.80
2013,04,04,06,46,7.80
2013,04,04,06,47,7.80
2013,04,04,06,48,7.80
2013,04,04,06,49,7.80
2013,04,04,06,50,7.80
2013,04,04,06,51,7.80
2013,04,04,06,52,7.80
2013,04,04,06,53,7.80
2013,04,04,06,54,7.80
2013,04,04,06,55,7.80
2013,04,04,06,56,7.80
2013,04,04,06,57,7.80
2013,04,04,06,58,7.80
2013,04,04,06,59,7.80
2013,04,04,07,00,7.80
2013,04,04,07,01,7.80
2013,04,04,07,02,7.80
2013,04,04,07,03,7.80
2013,04,04,07,04,7.80
2013,04,04,07,05,7.80
2013,04,04,07,06,7.80
2013,04,04,07,07,7.80
2013,04,04,07,08,7.80
2013,04,04,07,09,7.80
2013,04,04,07,10,7.80
2013,04,04,07,11,7.80
2013,04,04,07,12,7.80
2013,04,04,07,13,7.80
2013,04,04,07,14,7.80
2013,04,04,07,15,7.80
2013,04,04,07,16,7.80
2013,04,04,07,17,7.80
2013,04,04,07,18,7.80
2013,04,04,07,19,7.80
2013,04,04,07,20,7.80
2013,04,04,07,21,7.80
2013,04,04,07,22,7.90
2013,04,04,07,23,7.90
2013,04,04,07,24,7.80
2013,04,04,07,25,7.90
2013,04,04,07,26,7.80
2013,04,04,07,27,7.80
2013,04,04,07,28,7.80
2013,04,04,07,29,7.90
2013,04,04,07,30,7.80
2013,04,04,07,31,7.80
2013,04,04,07,32,7.80
2013,04,04,07,33,7.90
2013,04,04,07,34,7.90
2013,04,04,07,35,7.90
2013,04,04,07,36,7.90
2013,04,04,07,37,7.90
2013,04,04,07,38,7.90
2013,04,04,07,39,7.90
2013,04,04,07,40,7.90
2013,04,04,07,41,8.00
2013,04,04,07,42,7.90
2013,04,04,07,43,8.00
2013,04,04,07,44,7.90
2013,04,04,07,45,8.00
2013,04,04,07,46,8.00
2013,04,04,07,47,8.00
2013,04,04,07,48,8.00
2013,04,04,07,49,8.00
2013,04,04,07,50,8.00
2013,04,04,07,51,8.00
2013,04,04,07,52,8.00
2013,04,04,07,53,7.90
2013,04,04,07,54,7.90
2013,04,04,07,55,7.90
2013,04,04,07,56,7.90
2013,04,04,07,57,7.90
2013,04,04,07,58,7.90
2013,04,04,07,59,7.90
2013,04,04,08,00,7.90
2013,04,04,08,01,7.90
2013,04,04,08,02,7.90
2013,04,04,08,03,8.00
2013,04,04,08,04,8.00
2013,04,04,08,05,8.00
2013,04,04,08,06,8.00
2013,04,04,08,07,8.10
2013,04,04,08,08,8.10
2013,04,04,08,09,8.10
2013,04,04,08,10,8.10
2013,04,04,08,11,8.10
2013,04,04,08,12,8.10
2013,04,04,08,13,8.10
2013,04,04,08,14,8.10
2013,04,04,08,15,8.10
2013,04,04,08,16,8.10
2013,04,04,08,17,8.20
2013,04,04,08,18,8.20
2013,04,04,08,19,8.20
2013,04,04,08,20,8.20
2013,04,04,08,21,8.20
2013,04,04,08,22,8.20
2013,04,04,08,23,8.30
2013,04,04,08,24,8.30
2013,04,04,08,25,8.30
2013,04,04,08,26,8.30
2013,04,04,08,27,8.40
2013,04,04,08,28,8.40
2013,04,04,08,29,8.40
2013,04,04,08,30,8.40
2013,04,04,08,31,8.40
2013,04,04,08,32,8.50
2013,04,04,08,33,8.50
2013,04,04,08,34,8.50
2013,04,04,08,35,8.50
2013,04,04,08,36,8.60
2013,04,04,08,37,8.60
2013,04,04,08,38,8.60
2013,04,04,08,39,8.60
2013,04,04,08,40,8.60
2013,04,04,08,41,8.60
2013,04,04,08,42,8.60
2013,04,04,08,43,8.60
2013,04,04,08,44,8.60
2013,04,04,08,45,8.60
2013,04,04,08,46,8.70
2013,04,04,08,47,8.70
2013,04,04,08,48,8.70
2013,04,04,08,49,8.70
2013,04,04,08,50,8.70
2013,04,04,08,51,8.80
2013,04,04,08,52,8.80
2013,04,04,08,53,8.80
2013,04,04,08,54,8.80
2013,04,04,08,55,8.80
2013,04,04,08,56,8.80
2013,04,04,08,57,8.80
2013,04,04,08,58,8.80
2013,04,04,08,59,8.80
2013,04,04,09,00,8.90
2013,04,04,09,01,8.90
2013,04,04,09,02,8.90
2013,04,04,09,03,8.90
2013,04,04,09,04,8.90
2013,04,04,09,05,8.90
2013,04,04,09,06,8.90
2013,04,04,09,07,8.90
2013,04,04,09,08,8.90
2013,04,04,09,09,8.90
2013,04,04,09,10,9.00
2013,04,04,09,11,9.00
2013,04,04,09,12,9.00
2013,04,04,09,13,9.00
2013,04,04,09,14,9.10
2013,04,04,09,15,9.10
2013,04,04,09,16,9.10
2013,04,04,09,17,9.10
2013,04,04,09,18,9.10
2013,04,04,09,19,9.10
2013,04,04,09,20,9.20
2013,04,04,09,21,9.20
2013,04,04,09,22,9.20
2013,04,04,09,23,9.20
2013,04,04,09,24,9.20
2013,04,04,09,25,9.30
2013,04,04,09,26,9.30
2013,04,04,09,27,9.40
2013,04,04,09,28,9.40
2013,04,04,09,29,9.40
2013,04,04,09,30,9.40
2013,04,04,09,31,9.50
2013,04,04,09,32,9.50
2013,04,04,09,33,9.60
2013,04,04,09,34,9.60
2013,04,04,09,35,9.60
2013,04,04,09,36,9.60
2013,04,04,09,37,9.60
2013,04,04,09,38,9.60
2013,04,04,09,39,9.60
2013,04,04,09,40,9.60
2013,04,04,09,41,9.60
2013,04,04,09,42,9.60
2013,04,04,09,43,9.60
2013,04,04,09,44,9.70
2013,04,04,09,45,9.70
2013,04,04,09,46,9.70
2013,04,04,09,47,9.70
2013,04,04,09,48,9.80
2013,04,04,09,49,9.80
2013,04,04,09,50,9.80
2013,04,04,09,51,9.80
2013,04,04,09,52,9.80
2013,04,04,09,53,9.80
2013,04,04,09,54,9.80
2013,04,04,09,55,9.80
2013,04,04,09,56,9.80
2013,04,04,09,57,9.70
2013,04,04,09,58,9.70
2013,04,04,09,59,9.70
2013,04,04,10,00,9.70
2013,04,04,10,01,9.80
2013,04,04,10,02,9.80
2013,04,04,10,03,9.80
2013,04,04,10,04,9.80
2013,04,04,10,05,9.80
2013,04,04,10,06,9.80
2013,04,04,10,07,9.80
2013,04,04,10,08,9.80
2013,04,04,10,09,9.80
2013,04,04,10,10,9.80
2013,04,04,10,11,9.80
2013,04,04,10,12,9.80
2013,04,04,10,13,9.80
2013,04,04,10,14,9.90
2013,04,04,10,15,9.90
2013,04,04,10,16,10.00
2013,04,04,10,17,10.00
2013,04,04,10,18,10.00
2013,04,04,10,19,10.00
2013,04,04,10,20,10.00
2013,04,04,10,21,10.10
2013,04,04,10,22,10.10
2013,04,04,10,23,10.10
2013,04,04,10,24,10.10
2013,04,04,10,25,10.20
2013,04,04,10,26,10.20
2013,04,04,10,27,10.30
2013,04,04,10,28,10.30
2013,04,04,10,29,10.40
2013,04,04,10,30,10.40
2013,04,04,10,31,10.50
2013,04,04,10,32,10.50
2013,04,04,10,33,10.60
2013,04,04,10,34,10.60
2013,04,04,10,35,10.60
2013,04,04,10,36,10.60
2013,04,04,10,37,10.60
2013,04,04,10,38,10.60
2013,04,04,10,39,10.70
2013,04,04,10,40,10.70
2013,04,04,10,41,10.70
2013,04,04,10,42,10.70
2013,04,04,10,43,10.70
2013,04,04,10,44,10.70
2013,04,04,10,45,10.80
2013,04,04,10,46,10.80
2013,04,04,10,47,10.80
2013,04,04,10,48,10.80
2013,04,04,10,49,10.80
2013,04,04,10,50,10.80
2013,04,04,10,51,10.80
2013,04,04,10,52,10.70
2013,04,04,10,53,10.60
2013,04,04,10,54,10.40
2013,04,04,10,55,10.30
2013,04,04,10,56,10.10
2013,04,04,10,57,10.00
2013,04,04,10,58,10.00
2013,04,04,10,59,9.90
2013,04,04,11,00,9.80
2013,04,04,11,01,9.80
2013,04,04,11,02,9.80
2013,04,04,11,03,9.80
2013,04,04,11,04,9.80
2013,04,04,11,05,9.80
2013,04,04,11,06,9.80
2013,04,04,11,07,9.70
2013,04,04,11,08,9.70
2013,04,04,11,09,9.70
2013,04,04,11,10,9.70
2013,04,04,11,11,9.70
2013,04,04,11,12,9.70
2013,04,04,11,13,9.70
2013,04,04,11,14,9.70
2013,04,04,11,15,9.70
2013,04,04,11,16,9.70
2013,04,04,11,17,9.70
2013,04,04,11,18,9.70
2013,04,04,11,19,9.70
2013,04,04,11,20,9.70
2013,04,04,11,21,9.70
2013,04,04,11,22,9.70
2013,04,04,11,23,9.70
2013,04,04,11,24,9.60
2013,04,04,11,25,9.60
2013,04,04,11,26,9.60
2013,04,04,11,27,9.60
2013,04,04,11,28,9.60
2013,04,04,11,29,9.50
2013,04,04,11,30,9.50
2013,04,04,11,31,9.40
2013,04,04,11,32,9.40
2013,04,04,11,33,9.40
2013,04,04,11,34,9.40
2013,04,04,11,35,9.40
2013,04,04,11,36,9.40
2013,04,04,11,37,9.40
2013,04,04,11,38,9.40
2013,04,04,11,39,9.40
2013,04,04,11,40,9.40
2013,04,04,11,41,9.40
2013,04,04,11,42,9.40
2013,04,04,11,43,9.40
2013,04,04,11,44,9.40
2013,04,04,11,45,9.40
2013,04,04,11,46,9.40
2013,04,04,11,47,9.40
2013,04,04,11,48,9.40
2013,04,04,11,49,9.40
2013,04,04,11,50,9.40
2013,04,04,11,51,9.40
2013,04,04,11,52,9.40
2013,04,04,11,53,9.40
2013,04,04,11,54,9.40
2013,04,04,11,55,9.30
2013,04,04,11,56,9.30
2013,04,04,11,57,9.30
2013,04,04,11,58,9.40
2013,04,04,11,59,9.40
2013,04,04,12,00,9.40
2013,04,04,12,01,9.40
2013,04,04,12,02,9.40
2013,04,04,12,03,9.40
2013,04,04,12,04,9.40
2013,04,04,12,05,9.50
2013,04,04,12,06,9.50
2013,04,04,12,07,9.50
2013,04,04,12,08,9.50
2013,04,04,12,09,9.50
2013,04,04,12,10,9.50
2013,04,04,12,11,9.40
2013,04,04,12,12,9.40
2013,04,04,12,13,9.50
2013,04,04,12,14,9.50
2013,04,04,12,15,9.50
2013,04,04,12,16,9.60
2013,04,04,12,17,9.60
2013,04,04,12,18,9.60
2013,04,04,12,19,9.50
2013,04,04,12,20,9.50
2013,04,04,12,21,9.40
2013,04,04,12,22,9.40
2013,04,04,12,23,9.40
2013,04,04,12,24,9.40
2013,04,04,12,25,9.40
2013,04,04,12,26,9.50
2013,04,04,12,27,9.50
2013,04,04,12,28,9.50
2013,04,04,12,29,9.50
2013,04,04,12,30,9.60
2013,04,04,12,31,9.50
2013,04,04,12,32,9.50
2013,04,04,12,33,9.50
2013,04,04,12,34,9.50
2013,04,04,12,35,9.50
2013,04,04,12,36,9.50
2013,04,04,12,37,9.50
2013,04,04,12,38,9.60
2013,04,04,12,39,9.60
2013,04,04,12,40,9.60
2013,04,04,12,41,9.70
2013,04,04,12,42,9.70
2013,04,04,12,43,9.80
2013,04,04,12,44,9.80
2013,04,04,12,45,9.80
2013,04,04,12,46,9.80
2013,04,04,12,47,9.80
2013,04,04,12,48,9.80
2013,04,04,12,49,9.80
2013,04,04,12,50,9.80
2013,04,04,12,51,9.80
2013,04,04,12,52,9.80
2013,04,04,12,53,9.80
2013,04,04,12,54,9.90
2013,04,04,12,55,9.80
2013,04,04,12,56,9.90
2013,04,04,12,57,9.90
2013,04,04,12,58,9.80
2013,04,04,12,59,9.70
2013,04,04,13,00,9.70
2013,04,04,13,01,9.70
2013,04,04,13,02,9.70
2013,04,04,13,03,9.70
2013,04,04,13,04,9.70
2013,04,04,13,05,9.70
2013,04,04,13,06,9.80
2013,04,04,13,07,9.80
2013,04,04,13,08,9.80
2013,04,04,13,09,9.80
2013,04,04,13,10,9.90
2013,04,04,13,11,9.90
2013,04,04,13,12,9.90
2013,04,04,13,13,9.90
2013,04,04,13,14,9.90
2013,04,04,13,15,9.90
2013,04,04,13,16,9.90
2013,04,04,13,17,9.90
2013,04,04,13,18,9.90
2013,04,04,13,19,9.90
2013,04,04,13,20,9.90
2013,04,04,13,21,9.90
2013,04,04,13,22,9.90
2013,04,04,13,23,9.90
2013,04,04,13,24,9.90
2013,04,04,13,25,10.00
2013,04,04,13,26,10.00
2013,04,04,13,27,10.00
2013,04,04,13,28,9.90
2013,04,04,13,29,9.90
2013,04,04,13,30,10.00
2013,04,04,13,31,10.00
2013,04,04,13,32,9.90
2013,04,04,13,33,9.80
2013,04,04,13,34,9.80
2013,04,04,13,35,9.80
2013,04,04,13,36,9.70
2013,04,04,13,37,9.70
2013,04,04,13,38,9.70
2013,04,04,13,39,9.70
2013,04,04,13,40,9.60
2013,04,04,13,41,9.60
2013,04,04,13,42,9.60
2013,04,04,13,43,9.60
2013,04,04,13,44,9.60
2013,04,04,13,45,9.50
2013,04,04,13,46,9.40
2013,04,04,13,47,9.40
2013,04,04,13,48,9.40
2013,04,04,13,49,9.40
2013,04,04,13,50,9.40
2013,04,04,13,51,9.40
2013,04,04,13,52,9.30
2013,04,04,13,53,9.30
2013,04,04,13,54,9.30
2013,04,04,13,55,9.30
2013,04,04,13,56,9.30
2013,04,04,13,57,9.30
2013,04,04,13,58,9.30
2013,04,04,13,59,9.30
2013,04,04,14,00,9.30
2013,04,04,14,01,9.30
2013,04,04,14,02,9.30
2013,04,04,14,03,9.30
2013,04,04,14,04,9.30
2013,04,04,14,05,9.30
2013,04,04,14,06,9.20
2013,04,04,14,07,9.20
2013,04,04,14,08,9.20
2013,04,04,14,09,9.10
2013,04,04,14,10,9.10
2013,04,04,14,11,9.10
2013,04,04,14,12,9.00
2013,04,04,14,13,9.00
2013,04,04,14,14,9.00
2013,04,04,14,15,9.00
2013,04,04,14,16,9.00
2013,04,04,14,17,9.00
2013,04,04,14,18,9.00
2013,04,04,14,19,9.00
2013,04,04,14,20,9.00
2013,04,04,14,21,9.10
2013,04,04,14,22,9.10
2013,04,04,14,23,9.10
2013,04,04,14,24,9.20
2013,04,04,14,25,9.20
2013,04,04,14,26,9.20
2013,04,04,14,27,9.30
2013,04,04,14,28,9.20
2013,04,04,14,29,9.30
2013,04,04,14,30,9.30
2013,04,04,14,31,9.30
2013,04,04,14,32,9.30
2013,04,04,14,33,9.30
2013,04,04,14,34,9.30
2013,04,04,14,35,9.20
2013,04,04,14,36,9.20
2013,04,04,14,37,9.10
2013,04,04,14,38,9.10
2013,04,04,14,39,9.10
2013,04,04,14,40,9.10
2013,04,04,14,41,9.20
2013,04,04,14,42,9.20
2013,04,04,14,43,9.20
2013,04,04,14,44,9.20
2013,04,04,14,45,9.20
2013,04,04,14,46,9.20
2013,04,04,14,47,9.10
2013,04,04,14,48,9.10
2013,04,04,14,49,9.10
2013,04,04,14,50,9.10
2013,04,04,14,51,9.10
2013,04,04,14,52,9.10
2013,04,04,14,53,9.20
2013,04,04,14,54,9.20
2013,04,04,14,55,9.20
2013,04,04,14,56,9.20
2013,04,04,14,57,9.20
2013,04,04,14,58,9.20
2013,04,04,14,59,9.20
2013,04,04,15,00,9.20
2013,04,04,15,01,9.10
2013,04,04,15,02,9.10
2013,04,04,15,03,9.10
2013,04,04,15,04,9.20
2013,04,04,15,05,9.20
2013,04,04,15,06,9.10
2013,04,04,15,07,9.10
2013,04,04,15,08,9.10
2013,04,04,15,09,9.10
2013,04,04,15,10,9.10
2013,04,04,15,11,9.10
2013,04,04,15,12,9.10
2013,04,04,15,13,9.10
2013,04,04,15,14,9.00
2013,04,04,15,15,9.00
2013,04,04,15,16,9.00
2013,04,04,15,17,9.00
2013,04,04,15,18,9.00
2013,04,04,15,19,9.00
2013,04,04,15,20,9.00
2013,04,04,15,21,9.00
2013,04,04,15,22,9.00
2013,04,04,15,23,9.00
2013,04,04,15,24,9.00
2013,04,04,15,25,9.00
2013,04,04,15,26,9.00
2013,04,04,15,27,9.10
2013,04,04,15,28,9.00
2013,04,04,15,29,9.00
2013,04,04,15,30,9.00
2013,04,04,15,31,9.00
2013,04,04,15,32,9.00
2013,04,04,15,33,9.00
2013,04,04,15,34,8.90
2013,04,04,15,35,8.90
2013,04,04,15,36,8.90
2013,04,04,15,37,8.90
2013,04,04,15,38,8.90
2013,04,04,15,39,8.80
2013,04,04,15,40,8.80
2013,04,04,15,41,8.80
2013,04,04,15,42,8.90
2013,04,04,15,43,8.90
2013,04,04,15,44,8.90
2013,04,04,15,45,9.00
2013,04,04,15,46,9.00
2013,04,04,15,47,9.00
2013,04,04,15,48,9.00
2013,04,04,15,49,9.00
2013,04,04,15,50,8.90
2013,04,04,15,51,8.90
2013,04,04,15,52,8.90
2013,04,04,15,53,9.00
2013,04,04,15,54,9.00
2013,04,04,15,55,9.00
2013,04,04,15,56,9.00
2013,04,04,15,57,9.00
2013,04,04,15,58,9.10
2013,04,04,15,59,9.10
2013,04,04,16,00,9.10
2013,04,04,16,01,9.10
2013,04,04,16,02,9.10
2013,04,04,16,03,9.10
2013,04,04,16,04,9.20
2013,04,04,16,05,9.20
2013,04,04,16,06,9.20
2013,04,04,16,07,9.20
2013,04,04,16,08,9.20
2013,04,04,16,09,9.30
2013,04,04,16,10,9.30
2013,04,04,16,11,9.30
2013,04,04,16,12,9.30
2013,04,04,16,13,9.30
2013,04,04,16,14,9.20
2013,04,04,16,15,9.20
2013,04,04,16,16,9.20
2013,04,04,16,17,9.20
2013,04,04,16,18,9.20
2013,04,04,16,19,9.20
2013,04,04,16,20,9.20
2013,04,04,16,21,9.20
2013,04,04,16,22,9.20
2013,04,04,16,23,9.30
2013,04,04,16,24,9.30
2013,04,04,16,25,9.20
2013,04,04,16,26,9.20
2013,04,04,16,27,9.10
2013,04,04,16,28,9.10
2013,04,04,16,29,9.00
2013,04,04,16,30,8.90
2013,04,04,16,31,8.90
2013,04,04,16,32,8.90
2013,04,04,16,33,8.90
2013,04,04,16,34,9.00
2013,04,04,16,35,9.00
2013,04,04,16,36,9.00
2013,04,04,16,37,9.00
2013,04,04,16,38,9.00
2013,04,04,16,39,9.00
2013,04,04,16,40,8.90
2013,04,04,16,41,8.90
2013,04,04,16,42,8.90
2013,04,04,16,43,8.90
2013,04,04,16,44,8.90
2013,04,04,16,45,8.90
2013,04,04,16,46,8.90
2013,04,04,16,47,8.90
2013,04,04,16,48,8.90
2013,04,04,16,49,8.90
2013,04,04,16,50,8.90
2013,04,04,16,51,8.90
2013,04,04,16,52,8.90
2013,04,04,16,53,8.90
2013,04,04,16,54,8.90
2013,04,04,16,55,8.90
2013,04,04,16,56,8.90
2013,04,04,16,57,8.90
2013,04,04,16,58,8.90
2013,04,04,16,59,8.90
2013,04,04,17,00,8.90
2013,04,04,17,01,8.90
2013,04,04,17,02,8.90
2013,04,04,17,03,9.00
2013,04,04,17,04,9.00
2013,04,04,17,05,9.00
2013,04,04,17,06,9.00
2013,04,04,17,07,9.00
2013,04,04,17,08,8.90
2013,04,04,17,09,8.90
2013,04,04,17,10,8.90
2013,04,04,17,11,8.90
2013,04,04,17,12,8.90
2013,04,04,17,13,8.90
2013,04,04,17,14,8.90
2013,04,04,17,15,8.90
2013,04,04,17,16,8.90
2013,04,04,17,17,8.90
2013,04,04,17,18,8.90
2013,04,04,17,19,8.90
2013,04,04,17,20,8.90
2013,04,04,17,21,8.90
2013,04,04,17,22,8.80
2013,04,04,17,23,8.80
2013,04,04,17,24,8.70
2013,04,04,17,25,8.70
2013,04,04,17,26,8.70
2013,04,04,17,27,8.70
2013,04,04,17,28,8.70
2013,04,04,17,29,8.70
2013,04,04,17,30,8.70
2013,04,04,17,31,8.70
2013,04,04,17,32,8.60
2013,04,04,17,33,8.60
2013,04,04,17,34,8.60
2013,04,04,17,35,8.60
2013,04,04,17,36,8.60
2013,04,04,17,37,8.60
2013,04,04,17,38,8.60
2013,04,04,17,39,8.60
2013,04,04,17,40,8.60
2013,04,04,17,41,8.60
2013,04,04,17,42,8.60
2013,04,04,17,43,8.60
2013,04,04,17,44,8.60
2013,04,04,17,45,8.60
2013,04,04,17,46,8.60
2013,04,04,17,47,8.60
2013,04,04,17,48,8.60
2013,04,04,17,49,8.60
2013,04,04,17,50,8.60
2013,04,04,17,51,8.70
2013,04,04,17,52,8.70
2013,04,04,17,53,8.70
2013,04,04,17,54,8.60
2013,04,04,17,55,8.60
2013,04,04,17,56,8.60
2013,04,04,17,57,8.60
2013,04,04,17,58,8.60
2013,04,04,17,59,8.60
2013,04,04,18,00,8.60
2013,04,04,18,01,8.60
2013,04,04,18,02,8.60
2013,04,04,18,03,8.60
2013,04,04,18,04,8.60